Year,Month,Day,Hour,Minute,Value (Times are PST for temperature in C)
2013,04,28,00,00,9.00
2013,04,28,00,01,9.00
2013,04,28,00,05,9.10
2013,04,28,00,06,9.10
2013,04,28,00,07,9.10
2013,04,28,00,08,9.10
2013,04,28,00,09,9.10
2013,04,28,00,10,9.10
2013,04,28,00,11,9.10
2013,04,28,00,12,9.10
2013,04,28,00,13,9.10
2013,04,28,00,14,9.10
2013,04,28,00,15,9.10
2013,04,28,00,16,9.10
2013,04,28,00,17,9.10
2013,04,28,00,18,9.10
2013,04,28,00,19,9.20
2013,04,28,00,20,9.20
2013,04,28,00,21,9.20
2013,04,28,00,22,9.20
2013,04,28,00,23,9.20
2013,04,28,00,24,9.20
2013,04,28,00,25,9.20
2013,04,28,00,26,9.20
2013,04,28,00,27,9.20
2013,04,28,00,28,9.20
2013,04,28,00,29,9.10
2013,04,28,00,30,9.10
2013,04,28,00,31,9.10
2013,04,28,00,32,9.10
2013,04,28,00,33,9.10
2013,04,28,00,34,9.10
2013,04,28,00,35,9.10
2013,04,28,00,36,9.00
2013,04,28,00,37,9.00
2013,04,28,00,38,9.00
2013,04,28,00,39,8.90
2013,04,28,00,40,8.90
2013,04,28,00,41,8.90
2013,04,28,00,42,8.90
2013,04,28,00,43,8.90
2013,04,28,00,44,8.90
2013,04,28,00,45,8.90
2013,04,28,00,46,8.90
2013,04,28,00,47,8.90
2013,04,28,00,48,8.80
2013,04,28,00,49,8.80
2013,04,28,00,50,8.80
2013,04,28,00,51,8.80
2013,04,28,00,52,8.80
2013,04,28,00,53,8.70
2013,04,28,00,54,8.70
2013,04,28,00,55,8.70
2013,04,28,00,56,8.70
2013,04,28,00,57,8.70
2013,04,28,00,58,8.60
2013,04,28,00,59,8.60
2013,04,28,01,00,8.60
2013,04,28,01,01,8.60
2013,04,28,01,02,8.50
2013,04,28,01,03,8.40
2013,04,28,01,04,8.40
2013,04,28,01,05,8.40
2013,04,28,01,06,8.40
2013,04,28,01,07,8.40
2013,04,28,01,08,8.40
2013,04,28,01,09,8.40
2013,04,28,01,10,8.40
2013,04,28,01,11,8.40
2013,04,28,01,12,8.40
2013,04,28,01,13,8.30
2013,04,28,01,14,8.30
2013,04,28,01,15,8.30
2013,04,28,01,16,8.30
2013,04,28,01,17,8.30
2013,04,28,01,18,8.20
2013,04,28,01,19,8.20
2013,04,28,01,20,8.20
2013,04,28,01,21,8.20
2013,04,28,01,22,8.20
2013,04,28,01,23,8.10
2013,04,28,01,24,8.10
2013,04,28,01,25,8.00
2013,04,28,01,26,7.90
2013,04,28,01,27,7.90
2013,04,28,01,28,7.90
2013,04,28,01,29,7.80
2013,04,28,01,30,7.80
2013,04,28,01,31,7.70
2013,04,28,01,32,7.60
2013,04,28,01,33,7.60
2013,04,28,01,34,7.50
2013,04,28,01,35,7.50
2013,04,28,01,36,7.40
2013,04,28,01,37,7.40
2013,04,28,01,38,7.30
2013,04,28,01,39,7.30
2013,04,28,01,40,7.30
2013,04,28,01,41,7.30
2013,04,28,01,42,7.30
2013,04,28,01,43,7.30
2013,04,28,01,44,7.20
2013,04,28,01,45,7.20
2013,04,28,01,46,7.10
2013,04,28,01,47,7.10
2013,04,28,01,48,7.10
2013,04,28,01,49,7.10
2013,04,28,01,50,7.00
2013,04,28,01,51,7.00
2013,04,28,01,52,6.90
2013,04,28,01,53,6.90
2013,04,28,01,54,6.80
2013,04,28,01,55,6.80
2013,04,28,01,56,6.80
2013,04,28,01,57,6.80
2013,04,28,01,58,6.70
2013,04,28,01,59,6.70
2013,04,28,02,00,6.70
2013,04,28,02,01,6.70
2013,04,28,02,02,6.70
2013,04,28,02,03,6.60
2013,04,28,02,04,6.60
2013,04,28,02,05,6.50
2013,04,28,02,06,6.50
2013,04,28,02,07,6.40
2013,04,28,02,08,6.50
2013,04,28,02,09,6.50
2013,04,28,02,10,6.50
2013,04,28,02,11,6.50
2013,04,28,02,12,6.50
2013,04,28,02,13,6.50
2013,04,28,02,14,6.40
2013,04,28,02,15,6.40
2013,04,28,02,16,6.30
2013,04,28,02,17,6.30
2013,04,28,02,18,6.30
2013,04,28,02,19,6.30
2013,04,28,02,20,6.30
2013,04,28,02,21,6.40
2013,04,28,02,22,6.40
2013,04,28,02,23,6.40
2013,04,28,02,24,6.40
2013,04,28,02,25,6.40
2013,04,28,02,26,6.40
2013,04,28,02,27,6.50
2013,04,28,02,28,6.50
2013,04,28,02,29,6.60
2013,04,28,02,30,6.60
2013,04,28,02,31,6.60
2013,04,28,02,32,6.60
2013,04,28,02,33,6.60
2013,04,28,02,34,6.60
2013,04,28,02,35,6.60
2013,04,28,02,36,6.70
2013,04,28,02,37,6.70
2013,04,28,02,38,6.70
2013,04,28,02,39,6.70
2013,04,28,02,40,6.70
2013,04,28,02,41,6.70
2013,04,28,02,42,6.70
2013,04,28,02,43,6.70
2013,04,28,02,44,6.80
2013,04,28,02,45,6.90
2013,04,28,02,46,6.90
2013,04,28,02,47,7.00
2013,04,28,02,48,7.10
2013,04,28,02,49,7.10
2013,04,28,02,50,7.20
2013,04,28,02,51,7.20
2013,04,28,02,52,7.20
2013,04,28,02,53,7.20
2013,04,28,02,54,7.30
2013,04,28,02,55,7.30
2013,04,28,02,56,7.30
2013,04,28,02,57,7.30
2013,04,28,02,58,7.30
2013,04,28,02,59,7.30
2013,04,28,03,00,7.30
2013,04,28,03,01,7.30
2013,04,28,03,02,7.40
2013,04,28,03,03,7.40
2013,04,28,03,04,7.40
2013,04,28,03,05,7.40
2013,04,28,03,06,7.40
2013,04,28,03,07,7.40
2013,04,28,03,08,7.40
2013,04,28,03,09,7.40
2013,04,28,03,10,7.40
2013,04,28,03,11,7.40
2013,04,28,03,12,7.40
2013,04,28,03,13,7.40
2013,04,28,03,14,7.30
2013,04,28,03,15,7.40
2013,04,28,03,16,7.40
2013,04,28,03,17,7.40
2013,04,28,03,18,7.40
2013,04,28,03,19,7.40
2013,04,28,03,20,7.40
2013,04,28,03,21,7.40
2013,04,28,03,22,7.40
2013,04,28,03,23,7.30
2013,04,28,03,24,7.30
2013,04,28,03,25,7.30
2013,04,28,03,26,7.30
2013,04,28,03,27,7.30
2013,04,28,03,28,7.30
2013,04,28,03,29,7.30
2013,04,28,03,30,7.30
2013,04,28,03,31,7.30
2013,04,28,03,32,7.30
2013,04,28,03,33,7.30
2013,04,28,03,34,7.20
2013,04,28,03,35,7.20
2013,04,28,03,36,7.20
2013,04,28,03,37,7.20
2013,04,28,03,38,7.20
2013,04,28,03,39,7.20
2013,04,28,03,40,7.20
2013,04,28,03,41,7.20
2013,04,28,03,42,7.20
2013,04,28,03,43,7.20
2013,04,28,03,44,7.10
2013,04,28,03,45,7.10
2013,04,28,03,46,7.10
2013,04,28,03,47,7.10
2013,04,28,03,48,7.10
2013,04,28,03,49,7.10
2013,04,28,03,50,7.10
2013,04,28,03,51,7.00
2013,04,28,03,52,7.00
2013,04,28,03,53,7.00
2013,04,28,03,54,7.00
2013,04,28,03,55,7.00
2013,04,28,03,56,6.90
2013,04,28,03,57,6.90
2013,04,28,03,58,6.90
2013,04,28,03,59,6.90
2013,04,28,04,00,6.90
2013,04,28,04,01,6.90
2013,04,28,04,02,6.90
2013,04,28,04,03,6.90
2013,04,28,04,04,6.90
2013,04,28,04,05,6.90
2013,04,28,04,06,6.90
2013,04,28,04,07,6.90
2013,04,28,04,08,6.90
2013,04,28,04,09,6.80
2013,04,28,04,10,6.80
2013,04,28,04,11,6.80
2013,04,28,04,12,6.80
2013,04,28,04,13,6.80
2013,04,28,04,14,6.70
2013,04,28,04,15,6.70
2013,04,28,04,16,6.80
2013,04,28,04,17,6.80
2013,04,28,04,18,6.80
2013,04,28,04,19,6.80
2013,04,28,04,20,6.80
2013,04,28,04,21,6.80
2013,04,28,04,22,6.80
2013,04,28,04,23,6.90
2013,04,28,04,24,6.90
2013,04,28,04,25,7.00
2013,04,28,04,26,7.00
2013,04,28,04,27,7.10
2013,04,28,04,28,7.10
2013,04,28,04,29,7.10
2013,04,28,04,30,7.10
2013,04,28,04,31,7.10
2013,04,28,04,32,7.00
2013,04,28,04,33,7.00
2013,04,28,04,34,7.00
2013,04,28,04,35,6.90
2013,04,28,04,36,6.90
2013,04,28,04,37,7.00
2013,04,28,04,38,6.90
2013,04,28,04,39,6.90
2013,04,28,04,40,6.90
2013,04,28,04,41,6.90
2013,04,28,04,42,6.90
2013,04,28,04,43,6.90
2013,04,28,04,44,6.90
2013,04,28,04,45,6.90
2013,04,28,04,46,6.80
2013,04,28,04,47,6.80
2013,04,28,04,48,6.80
2013,04,28,04,49,6.80
2013,04,28,04,50,6.80
2013,04,28,04,51,6.70
2013,04,28,04,52,6.70
2013,04,28,04,53,6.60
2013,04,28,04,54,6.50
2013,04,28,04,55,6.40
2013,04,28,04,56,6.40
2013,04,28,04,57,6.30
2013,04,28,04,58,6.20
2013,04,28,04,59,6.10
2013,04,28,05,00,6.10
2013,04,28,05,01,6.00
2013,04,28,05,02,6.00
2013,04,28,05,03,6.00
2013,04,28,05,04,6.10
2013,04,28,05,05,6.10
2013,04,28,05,06,6.00
2013,04,28,05,07,6.00
2013,04,28,05,08,5.90
2013,04,28,05,09,5.90
2013,04,28,05,10,5.80
2013,04,28,05,11,5.80
2013,04,28,05,12,5.80
2013,04,28,05,13,5.70
2013,04,28,05,14,5.70
2013,04,28,05,15,5.70
2013,04,28,05,16,5.70
2013,04,28,05,17,5.70
2013,04,28,05,18,5.70
2013,04,28,05,19,5.70
2013,04,28,05,20,5.60
2013,04,28,05,21,5.60
2013,04,28,05,22,5.50
2013,04,28,05,23,5.40
2013,04,28,05,24,5.40
2013,04,28,05,25,5.40
2013,04,28,05,26,5.30
2013,04,28,05,27,5.30
2013,04,28,05,28,5.30
2013,04,28,05,29,5.30
2013,04,28,05,30,5.20
2013,04,28,05,31,5.20
2013,04,28,05,32,5.20
2013,04,28,05,33,5.20
2013,04,28,05,34,5.20
2013,04,28,05,35,5.10
2013,04,28,05,36,5.10
2013,04,28,05,37,5.10
2013,04,28,05,38,5.10
2013,04,28,05,39,5.00
2013,04,28,05,40,5.00
2013,04,28,05,41,4.90
2013,04,28,05,42,4.90
2013,04,28,05,43,4.90
2013,04,28,05,44,4.80
2013,04,28,05,45,4.80
2013,04,28,05,46,4.80
2013,04,28,05,47,4.80
2013,04,28,05,48,4.80
2013,04,28,05,49,4.80
2013,04,28,05,50,4.80
2013,04,28,05,51,4.80
2013,04,28,05,52,4.80
2013,04,28,05,53,4.70
2013,04,28,05,54,4.70
2013,04,28,05,55,4.70
2013,04,28,05,56,4.60
2013,04,28,05,57,4.60
2013,04,28,05,58,4.50
2013,04,28,05,59,4.50
2013,04,28,06,00,4.50
2013,04,28,06,01,4.40
2013,04,28,06,02,4.40
2013,04,28,06,03,4.30
2013,04,28,06,04,4.30
2013,04,28,06,05,4.30
2013,04,28,06,06,4.30
2013,04,28,06,07,4.20
2013,04,28,06,08,4.20
2013,04,28,06,09,4.20
2013,04,28,06,10,4.20
2013,04,28,06,11,4.20
2013,04,28,06,12,4.20
2013,04,28,06,13,4.20
2013,04,28,06,14,4.30
2013,04,28,06,15,4.30
2013,04,28,06,16,4.30
2013,04,28,06,17,4.30
2013,04,28,06,18,4.30
2013,04,28,06,19,4.30
2013,04,28,06,20,4.20
2013,04,28,06,21,4.20
2013,04,28,06,22,4.20
2013,04,28,06,23,4.20
2013,04,28,06,24,4.20
2013,04,28,06,25,4.20
2013,04,28,06,26,4.20
2013,04,28,06,27,4.20
2013,04,28,06,28,4.30
2013,04,28,06,29,4.30
2013,04,28,06,30,4.20
2013,04,28,06,31,4.30
2013,04,28,06,32,4.20
2013,04,28,06,33,4.20
2013,04,28,06,34,4.20
2013,04,28,06,35,4.20
2013,04,28,06,36,4.20
2013,04,28,06,37,4.20
2013,04,28,06,38,4.20
2013,04,28,06,39,4.20
2013,04,28,06,40,4.20
2013,04,28,06,41,4.20
2013,04,28,06,42,4.30
2013,04,28,06,43,4.20
2013,04,28,06,44,4.20
2013,04,28,06,45,4.20
2013,04,28,06,46,4.20
2013,04,28,06,47,4.20
2013,04,28,06,48,4.20
2013,04,28,06,49,4.20
2013,04,28,06,50,4.20
2013,04,28,06,51,4.10
2013,04,28,06,52,4.10
2013,04,28,06,53,4.10
2013,04,28,06,54,4.10
2013,04,28,06,55,4.10
2013,04,28,06,56,4.20
2013,04,28,06,57,4.20
2013,04,28,06,58,4.20
2013,04,28,06,59,4.20
2013,04,28,07,00,4.20
2013,04,28,07,01,4.30
2013,04,28,07,02,4.30
2013,04,28,07,03,4.30
2013,04,28,07,04,4.40
2013,04,28,07,05,4.40
2013,04,28,07,06,4.40
2013,04,28,07,07,4.50
2013,04,28,07,08,4.50
2013,04,28,07,09,4.60
2013,04,28,07,10,4.60
2013,04,28,07,11,4.60
2013,04,28,07,12,4.70
2013,04,28,07,13,4.70
2013,04,28,07,14,4.70
2013,04,28,07,15,4.80
2013,04,28,07,16,4.80
2013,04,28,07,17,4.90
2013,04,28,07,18,4.90
2013,04,28,07,19,5.00
2013,04,28,07,20,5.00
2013,04,28,07,21,5.10
2013,04,28,07,22,5.10
2013,04,28,07,23,5.20
2013,04,28,07,24,5.20
2013,04,28,07,25,5.20
2013,04,28,07,26,5.20
2013,04,28,07,27,5.20
2013,04,28,07,28,5.30
2013,04,28,07,29,5.30
2013,04,28,07,30,5.40
2013,04,28,07,31,5.40
2013,04,28,07,32,5.50
2013,04,28,07,33,5.60
2013,04,28,07,34,5.60
2013,04,28,07,35,5.70
2013,04,28,07,36,5.70
2013,04,28,07,37,5.80
2013,04,28,07,38,5.90
2013,04,28,07,39,5.90
2013,04,28,07,40,6.00
2013,04,28,07,41,6.00
2013,04,28,07,42,6.10
2013,04,28,07,43,6.20
2013,04,28,07,44,6.20
2013,04,28,07,45,6.30
2013,04,28,07,46,6.30
2013,04,28,07,47,6.40
2013,04,28,07,48,6.50
2013,04,28,07,49,6.50
2013,04,28,07,50,6.60
2013,04,28,07,51,6.70
2013,04,28,07,52,6.80
2013,04,28,07,53,6.90
2013,04,28,07,54,7.00
2013,04,28,07,55,7.10
2013,04,28,07,56,7.20
2013,04,28,07,57,7.30
2013,04,28,07,58,7.40
2013,04,28,07,59,7.40
2013,04,28,08,00,7.50
2013,04,28,08,01,7.70
2013,04,28,08,02,7.80
2013,04,28,08,03,7.90
2013,04,28,08,04,8.00
2013,04,28,08,05,8.10
2013,04,28,08,06,8.20
2013,04,28,08,07,8.30
2013,04,28,08,08,8.40
2013,04,28,08,09,8.50
2013,04,28,08,10,8.60
2013,04,28,08,11,8.70
2013,04,28,08,12,8.90
2013,04,28,08,13,9.00
2013,04,28,08,14,9.20
2013,04,28,08,15,9.30
2013,04,28,08,16,9.40
2013,04,28,08,17,9.50
2013,04,28,08,18,9.60
2013,04,28,08,19,9.60
2013,04,28,08,20,9.60
2013,04,28,08,21,9.50
2013,04,28,08,22,9.50
2013,04,28,08,23,9.60
2013,04,28,08,24,9.60
2013,04,28,08,25,9.70
2013,04,28,08,26,9.70
2013,04,28,08,27,9.70
2013,04,28,08,28,9.70
2013,04,28,08,29,9.70
2013,04,28,08,30,9.80
2013,04,28,08,31,9.80
2013,04,28,08,32,9.80
2013,04,28,08,33,9.80
2013,04,28,08,34,9.80
2013,04,28,08,35,9.80
2013,04,28,08,36,9.80
2013,04,28,08,37,9.80
2013,04,28,08,38,9.80
2013,04,28,08,39,9.80
2013,04,28,08,40,9.80
2013,04,28,08,41,9.80
2013,04,28,08,42,9.70
2013,04,28,08,43,9.70
2013,04,28,08,44,9.70
2013,04,28,08,45,9.70
2013,04,28,08,46,9.70
2013,04,28,08,47,9.60
2013,04,28,08,48,9.60
2013,04,28,08,49,9.60
2013,04,28,08,50,9.50
2013,04,28,08,51,9.50
2013,04,28,08,52,9.50
2013,04,28,08,53,9.40
2013,04,28,08,54,9.50
2013,04,28,08,55,9.50
2013,04,28,08,56,9.50
2013,04,28,08,57,9.50
2013,04,28,08,58,9.50
2013,04,28,08,59,9.60
2013,04,28,09,00,9.60
2013,04,28,09,01,9.60
2013,04,28,09,02,9.60
2013,04,28,09,03,9.50
2013,04,28,09,04,9.40
2013,04,28,09,05,9.40
2013,04,28,09,06,9.30
2013,04,28,09,07,9.30
2013,04,28,09,08,9.20
2013,04,28,09,09,9.20
2013,04,28,09,10,9.20
2013,04,28,09,11,9.20
2013,04,28,09,12,9.20
2013,04,28,09,13,9.20
2013,04,28,09,14,9.20
2013,04,28,09,15,9.30
2013,04,28,09,16,9.30
2013,04,28,09,17,9.40
2013,04,28,09,18,9.40
2013,04,28,09,19,9.40
2013,04,28,09,20,9.50
2013,04,28,09,21,9.50
2013,04,28,09,22,9.60
2013,04,28,09,23,9.60
2013,04,28,09,24,9.60
2013,04,28,09,25,9.70
2013,04,28,09,26,9.70
2013,04,28,09,27,9.80
2013,04,28,09,28,9.80
2013,04,28,09,29,9.70
2013,04,28,09,30,9.70
2013,04,28,09,31,9.60
2013,04,28,09,32,9.60
2013,04,28,09,33,9.60
2013,04,28,09,34,9.60
2013,04,28,09,35,9.60
2013,04,28,09,36,9.70
2013,04,28,09,37,9.70
2013,04,28,09,38,9.80
2013,04,28,09,39,9.90
2013,04,28,09,40,10.00
2013,04,28,09,41,10.00
2013,04,28,09,42,10.00
2013,04,28,09,43,10.00
2013,04,28,09,44,10.00
2013,04,28,09,45,10.10
2013,04,28,09,46,10.10
2013,04,28,09,47,10.10
2013,04,28,09,48,10.10
2013,04,28,09,49,10.10
2013,04,28,09,50,10.20
2013,04,28,09,51,10.20
2013,04,28,09,52,10.20
2013,04,28,09,53,10.20
2013,04,28,09,54,10.20
2013,04,28,09,55,10.20
2013,04,28,09,56,10.10
2013,04,28,09,57,10.00
2013,04,28,09,58,10.00
2013,04,28,09,59,9.90
2013,04,28,10,00,9.90
2013,04,28,10,01,10.00
2013,04,28,10,02,10.10
2013,04,28,10,03,10.20
2013,04,28,10,04,10.30
2013,04,28,10,05,10.30
2013,04,28,10,06,10.40
2013,04,28,10,07,10.40
2013,04,28,10,08,10.40
2013,04,28,10,09,10.30
2013,04,28,10,10,10.30
2013,04,28,10,11,10.30
2013,04,28,10,12,10.30
2013,04,28,10,13,10.30
2013,04,28,10,14,10.40
2013,04,28,10,15,10.40
2013,04,28,10,16,10.50
2013,04,28,10,17,10.60
2013,04,28,10,18,10.60
2013,04,28,10,19,10.70
2013,04,28,10,20,10.70
2013,04,28,10,21,10.70
2013,04,28,10,22,10.70
2013,04,28,10,23,10.80
2013,04,28,10,24,10.80
2013,04,28,10,25,10.80
2013,04,28,10,26,10.90
2013,04,28,10,27,10.90
2013,04,28,10,28,10.80
2013,04,28,10,29,10.80
2013,04,28,10,30,10.90
2013,04,28,10,31,11.00
2013,04,28,10,32,11.00
2013,04,28,10,33,11.00
2013,04,28,10,34,10.90
2013,04,28,10,35,10.90
2013,04,28,10,36,10.80
2013,04,28,10,37,10.80
2013,04,28,10,38,10.70
2013,04,28,10,39,10.70
2013,04,28,10,40,10.60
2013,04,28,10,41,10.60
2013,04,28,10,42,10.60
2013,04,28,10,43,10.70
2013,04,28,10,44,10.80
2013,04,28,10,45,10.80
2013,04,28,10,46,10.80
2013,04,28,10,47,10.80
2013,04,28,10,48,10.80
2013,04,28,10,49,10.80
2013,04,28,10,50,10.90
2013,04,28,10,51,11.00
2013,04,28,10,52,11.10
2013,04,28,10,53,11.20
2013,04,28,10,54,11.20
2013,04,28,10,55,11.10
2013,04,28,10,56,11.00
2013,04,28,10,57,11.00
2013,04,28,10,58,10.90
2013,04,28,10,59,10.90
2013,04,28,11,00,10.90
2013,04,28,11,01,10.80
2013,04,28,11,02,10.80
2013,04,28,11,03,10.80
2013,04,28,11,04,10.80
2013,04,28,11,05,10.80
2013,04,28,11,06,10.90
2013,04,28,11,07,11.00
2013,04,28,11,08,11.10
2013,04,28,11,09,11.00
2013,04,28,11,10,11.00
2013,04,28,11,11,11.00
2013,04,28,11,12,11.10
2013,04,28,11,13,11.10
2013,04,28,11,14,11.10
2013,04,28,11,15,11.10
2013,04,28,11,16,11.10
2013,04,28,11,17,11.10
2013,04,28,11,18,11.10
2013,04,28,11,19,11.10
2013,04,28,11,20,11.10
2013,04,28,11,21,11.20
2013,04,28,11,22,11.20
2013,04,28,11,23,11.20
2013,04,28,11,24,11.20
2013,04,28,11,25,11.20
2013,04,28,11,26,11.30
2013,04,28,11,27,11.40
2013,04,28,11,28,11.50
2013,04,28,11,29,11.50
2013,04,28,11,30,11.50
2013,04,28,11,31,11.60
2013,04,28,11,32,11.70
2013,04,28,11,33,11.80
2013,04,28,11,34,11.80
2013,04,28,11,35,11.80
2013,04,28,11,36,11.80
2013,04,28,11,37,11.80
2013,04,28,11,38,11.80
2013,04,28,11,39,11.70
2013,04,28,11,40,11.70
2013,04,28,11,41,11.60
2013,04,28,11,42,11.60
2013,04,28,11,43,11.60
2013,04,28,11,44,11.50
2013,04,28,11,45,11.50
2013,04,28,11,46,11.50
2013,04,28,11,47,11.50
2013,04,28,11,48,11.60
2013,04,28,11,49,11.50
2013,04,28,11,50,11.50
2013,04,28,11,51,11.40
2013,04,28,11,52,11.40
2013,04,28,11,53,11.40
2013,04,28,11,54,11.40
2013,04,28,11,55,11.40
2013,04,28,11,56,11.40
2013,04,28,11,57,11.40
2013,04,28,11,58,11.40
2013,04,28,11,59,11.50
2013,04,28,12,00,11.60
2013,04,28,12,01,11.60
2013,04,28,12,02,11.70
2013,04,28,12,03,11.80
2013,04,28,12,04,11.90
2013,04,28,12,05,11.90
2013,04,28,12,06,11.90
2013,04,28,12,07,11.90
2013,04,28,12,08,11.90
2013,04,28,12,09,11.90
2013,04,28,12,10,11.90
2013,04,28,12,11,11.90
2013,04,28,12,12,11.90
2013,04,28,12,13,11.90
2013,04,28,12,14,11.90
2013,04,28,12,15,11.90
2013,04,28,12,16,11.90
2013,04,28,12,17,11.90
2013,04,28,12,18,12.00
2013,04,28,12,19,12.00
2013,04,28,12,20,12.00
2013,04,28,12,21,12.10
2013,04,28,12,22,12.10
2013,04,28,12,23,12.10
2013,04,28,12,24,12.10
2013,04,28,12,25,12.20
2013,04,28,12,26,12.30
2013,04,28,12,27,12.40
2013,04,28,12,28,12.40
2013,04,28,12,29,12.40
2013,04,28,12,30,12.50
2013,04,28,12,31,12.50
2013,04,28,12,32,12.60
2013,04,28,12,33,12.70
2013,04,28,12,34,12.70
2013,04,28,12,35,12.80
2013,04,28,12,36,12.90
2013,04,28,12,37,12.90
2013,04,28,12,38,12.90
2013,04,28,12,39,12.80
2013,04,28,12,40,12.60
2013,04,28,12,41,12.50
2013,04,28,12,42,12.30
2013,04,28,12,43,12.20
2013,04,28,12,44,12.20
2013,04,28,12,45,12.20
2013,04,28,12,46,12.30
2013,04,28,12,47,12.30
2013,04,28,12,48,12.30
2013,04,28,12,49,12.30
2013,04,28,12,50,12.40
2013,04,28,12,51,12.40
2013,04,28,12,52,12.40
2013,04,28,12,53,12.40
2013,04,28,12,54,12.40
2013,04,28,12,55,12.40
2013,04,28,12,56,12.40
2013,04,28,12,57,12.40
2013,04,28,12,58,12.30
2013,04,28,12,59,12.20
2013,04,28,13,00,12.10
2013,04,28,13,01,12.00
2013,04,28,13,02,12.00
2013,04,28,13,03,11.90
2013,04,28,13,04,11.90
2013,04,28,13,05,11.90
2013,04,28,13,06,11.80
2013,04,28,13,07,11.80
2013,04,28,13,08,11.80
2013,04,28,13,09,11.80
2013,04,28,13,10,11.80
2013,04,28,13,11,11.70
2013,04,28,13,12,11.70
2013,04,28,13,13,11.70
2013,04,28,13,14,11.70
2013,04,28,13,15,11.70
2013,04,28,13,16,11.60
2013,04,28,13,17,11.60
2013,04,28,13,18,11.50
2013,04,28,13,19,11.60
2013,04,28,13,20,11.50
2013,04,28,13,21,11.50
2013,04,28,13,22,11.50
2013,04,28,13,23,11.40
2013,04,28,13,24,11.40
2013,04,28,13,25,11.40
2013,04,28,13,26,11.40
2013,04,28,13,27,11.40
2013,04,28,13,28,11.40
2013,04,28,13,29,11.40
2013,04,28,13,30,11.50
2013,04,28,13,31,11.50
2013,04,28,13,32,11.40
2013,04,28,13,33,11.30
2013,04,28,13,34,11.30
2013,04,28,13,35,11.30
2013,04,28,13,36,11.30
2013,04,28,13,37,11.20
2013,04,28,13,38,11.20
2013,04,28,13,39,11.10
2013,04,28,13,40,11.10
2013,04,28,13,41,11.10
2013,04,28,13,42,11.10
2013,04,28,13,43,11.00
2013,04,28,13,44,11.00
2013,04,28,13,45,11.00
2013,04,28,13,46,11.00
2013,04,28,13,47,11.00
2013,04,28,13,48,10.90
2013,04,28,13,49,10.90
2013,04,28,13,50,10.90
2013,04,28,13,51,10.90
2013,04,28,13,52,10.90
2013,04,28,13,53,10.90
2013,04,28,13,54,10.90
2013,04,28,13,55,10.90
2013,04,28,13,56,10.90
2013,04,28,13,57,10.90
2013,04,28,13,58,10.80
2013,04,28,13,59,10.80
2013,04,28,14,00,10.80
2013,04,28,14,01,10.80
2013,04,28,14,02,10.70
2013,04,28,14,03,10.70
2013,04,28,14,04,10.70
2013,04,28,14,05,10.70
2013,04,28,14,06,10.70
2013,04,28,14,07,10.70
2013,04,28,14,08,10.70
2013,04,28,14,09,10.70
2013,04,28,14,10,10.70
2013,04,28,14,11,10.70
2013,04,28,14,12,10.70
2013,04,28,14,13,10.70
2013,04,28,14,14,10.70
2013,04,28,14,15,10.70
2013,04,28,14,16,10.70
2013,04,28,14,17,10.70
2013,04,28,14,18,10.70
2013,04,28,14,19,10.70
2013,04,28,14,20,10.70
2013,04,28,14,21,10.70
2013,04,28,14,22,10.70
2013,04,28,14,23,10.80
2013,04,28,14,24,10.80
2013,04,28,14,25,10.80
2013,04,28,14,26,10.80
2013,04,28,14,27,10.90
2013,04,28,14,28,10.90
2013,04,28,14,29,10.90
2013,04,28,14,30,10.80
2013,04,28,14,31,10.80
2013,04,28,14,32,10.90
2013,04,28,14,33,10.90
2013,04,28,14,34,10.90
2013,04,28,14,35,10.90
2013,04,28,14,36,10.90
2013,04,28,14,37,10.90
2013,04,28,14,38,10.90
2013,04,28,14,39,10.90
2013,04,28,14,40,10.90
2013,04,28,14,41,10.90
2013,04,28,14,42,10.90
2013,04,28,14,43,10.90
2013,04,28,14,44,11.00
2013,04,28,14,45,11.00
2013,04,28,14,46,11.10
2013,04,28,14,47,11.10
2013,04,28,14,48,11.20
2013,04,28,14,49,11.20
2013,04,28,14,50,11.20
2013,04,28,14,51,11.10
2013,04,28,14,52,11.10
2013,04,28,14,53,11.10
2013,04,28,14,54,11.20
2013,04,28,14,55,11.20
2013,04,28,14,56,11.20
2013,04,28,14,57,11.20
2013,04,28,14,58,11.20
2013,04,28,14,59,11.30
2013,04,28,15,00,11.30
2013,04,28,15,01,11.30
2013,04,28,15,02,11.30
2013,04,28,15,03,11.30
2013,04,28,15,04,11.30
2013,04,28,15,05,11.30
2013,04,28,15,06,11.40
2013,04,28,15,07,11.30
2013,04,28,15,08,11.30
2013,04,28,15,09,11.30
2013,04,28,15,10,11.20
2013,04,28,15,11,11.20
2013,04,28,15,12,11.20
2013,04,28,15,13,11.10
2013,04,28,15,14,11.10
2013,04,28,15,15,11.00
2013,04,28,15,16,11.00
2013,04,28,15,17,11.00
2013,04,28,15,18,10.90
2013,04,28,15,19,10.90
2013,04,28,15,20,10.90
2013,04,28,15,21,10.90
2013,04,28,15,22,10.90
2013,04,28,15,23,10.90
2013,04,28,15,24,10.90
2013,04,28,15,25,10.90
2013,04,28,15,26,10.90
2013,04,28,15,27,10.90
2013,04,28,15,28,10.80
2013,04,28,15,29,10.80
2013,04,28,15,30,10.80
2013,04,28,15,31,10.80
2013,04,28,15,32,10.80
2013,04,28,15,33,10.80
2013,04,28,15,34,10.80
2013,04,28,15,35,10.80
2013,04,28,15,36,10.80
2013,04,28,15,37,10.80
2013,04,28,15,38,10.80
2013,04,28,15,39,10.80
2013,04,28,15,40,10.80
2013,04,28,15,41,10.80
2013,04,28,15,42,10.80
2013,04,28,15,43,10.80
2013,04,28,15,44,10.80
2013,04,28,15,45,10.90
2013,04,28,15,46,10.90
2013,04,28,15,47,10.90
2013,04,28,15,48,10.90
2013,04,28,15,49,11.00
2013,04,28,15,50,11.00
2013,04,28,15,51,11.00
2013,04,28,15,52,11.00
2013,04,28,15,53,11.00
2013,04,28,15,54,11.00
2013,04,28,15,55,11.00
2013,04,28,15,56,11.00
2013,04,28,15,57,11.00
2013,04,28,15,58,11.10
2013,04,28,15,59,11.10
2013,04,28,16,00,11.10
2013,04,28,16,01,11.10
2013,04,28,16,02,11.10
2013,04,28,16,03,11.10
2013,04,28,16,04,11.10
2013,04,28,16,05,11.10
2013,04,28,16,06,11.00
2013,04,28,16,07,11.10
2013,04,28,16,08,11.10
2013,04,28,16,09,11.10
2013,04,28,16,10,11.10
2013,04,28,16,11,11.10
2013,04,28,16,12,11.10
2013,04,28,16,13,11.10
2013,04,28,16,14,11.00
2013,04,28,16,15,11.00
2013,04,28,16,16,10.80
2013,04,28,16,17,10.70
2013,04,28,16,18,10.60
2013,04,28,16,19,10.50
2013,04,28,16,20,10.40
2013,04,28,16,21,10.30
2013,04,28,16,22,10.20
2013,04,28,16,23,10.20
2013,04,28,16,24,10.20
2013,04,28,16,25,10.20
2013,04,28,16,26,10.20
2013,04,28,16,27,10.10
2013,04,28,16,28,10.10
2013,04,28,16,29,10.10
2013,04,28,16,30,10.10
2013,04,28,16,31,10.00
2013,04,28,16,32,10.00
2013,04,28,16,33,9.90
2013,04,28,16,34,9.90
2013,04,28,16,35,9.90
2013,04,28,16,36,9.90
2013,04,28,16,37,9.90
2013,04,28,16,38,9.90
2013,04,28,16,39,9.90
2013,04,28,16,40,9.90
2013,04,28,16,41,9.90
2013,04,28,16,42,9.80
2013,04,28,16,43,9.80
2013,04,28,16,44,9.90
2013,04,28,16,45,9.90
2013,04,28,16,46,9.90
2013,04,28,16,47,9.90
2013,04,28,16,48,9.90
2013,04,28,16,49,9.90
2013,04,28,16,50,9.80
2013,04,28,16,51,9.80
2013,04,28,16,52,9.80
2013,04,28,16,53,9.80
2013,04,28,16,54,9.80
2013,04,28,16,55,9.80
2013,04,28,16,56,9.80
2013,04,28,16,57,9.80
2013,04,28,16,58,9.80
2013,04,28,16,59,9.70
2013,04,28,17,00,9.70
2013,04,28,17,01,9.70
2013,04,28,17,02,9.70
2013,04,28,17,03,9.70
2013,04,28,17,04,9.70
2013,04,28,17,05,9.60
2013,04,28,17,06,9.60
2013,04,28,17,07,9.60
2013,04,28,17,08,9.60
2013,04,28,17,09,9.60
2013,04,28,17,10,9.60
2013,04,28,17,11,9.50
2013,04,28,17,12,9.40
2013,04,28,17,13,9.40
2013,04,28,17,14,9.40
2013,04,28,17,15,9.40
2013,04,28,17,16,9.40
2013,04,28,17,17,9.30
2013,04,28,17,18,9.30
2013,04,28,17,19,9.30
2013,04,28,17,20,9.30
2013,04,28,17,21,9.20
2013,04,28,17,22,9.20
2013,04,28,17,23,9.20
2013,04,28,17,24,9.20
2013,04,28,17,25,9.20
2013,04,28,17,26,9.10
2013,04,28,17,27,9.10
2013,04,28,17,28,9.10
2013,04,28,17,29,9.10
2013,04,28,17,30,9.10
2013,04,28,17,31,9.10
2013,04,28,17,32,9.10
2013,04,28,17,33,9.10
2013,04,28,17,34,9.10
2013,04,28,17,35,9.10
2013,04,28,17,36,9.00
2013,04,28,17,37,9.00
2013,04,28,17,38,9.00
2013,04,28,17,39,9.00
2013,04,28,17,40,9.00
2013,04,28,17,41,8.90
2013,04,28,17,42,8.90
2013,04,28,17,43,8.90
2013,04,28,17,44,8.80
2013,04,28,17,45,8.80
2013,04,28,17,46,8.80
2013,04,28,17,47,8.80
2013,04,28,17,48,8.80
2013,04,28,17,49,8.80
2013,04,28,17,50,8.70
2013,04,28,17,51,8.70